Wichita, KS

5:06 AM CDT on October 17, 2017 (GMT -0500)
Wichita Eisenhower National Airport

Weather History for KICT - February, 2012

Change the Weather History Date:

Sunday, February 19, 2012

  Actual Average Record
Temperature  
Mean Temperature 40 °F 38 °F  
Max Temperature 54 °F 49 °F 74 °F (1930)
Min Temperature 25 °F 27 °F 2 °F (1975)
Degree Days  
Heating Degree Days 25 27  
Month to date heating degree days 525 554  
Since 1 July heating degree days 3041 3414  
Cooling Degree Days 0 0  
Month to date cooling degree days 0 0  
Year to date cooling degree days 0 0  
Moisture  
Dew Point 31 °F    
Average Humidity 69    
Maximum Humidity 92    
Minimum Humidity 46    
Precipitation  
Precipitation 0.00 in 0.05 in 1.36 in (1891)
Month to date precipitation 3.22 0.76  
Year to date precipitation 3.25 1.59  
Snow  
Snow 0.00 in 0.10 in 3.50 in (1902)
Month to date snowfall 2.2 2.5  
Since 1 July snowfall 2.6 11.7  
Snow Depth 0.00 in    
Sea Level Pressure  
Sea Level Pressure 30.05 in    
Wind  
Wind Speed 8 mph (SSE)    
Max Wind Speed 21 mph    
Max Gust Speed 25 mph    
Visibility 10 miles    
Events      
T = Trace of Precipitation, MM = Missing Value Source: NWS Daily Summary

Daily Weather History Graph

Daily Weather History Graph

Search for Another Location

Airport or City:

Trip Planner

Search our weather history database for the weather conditions in past years. The results will help you decide how hot, cold, wet, or windy it might be!

Date:

Astronomy

Feb. 19, 2012 Rise Set
Actual Time 7:14 AM CST 6:12 PM CST
Civil Twilight 6:48 AM CST 6:39 PM CST
Nautical Twilight 6:17 AM CST 7:09 PM CST
Astronomical Twilight 5:47 AM CST 7:40 PM CST
Moon 5:34 AM CST (2/19) 4:16 PM CST (2/19)
Length of Visible Light 11h 51m
Length of Day
10h 57m
Waning Crescent, 5% of the Moon is Illuminated
Feb 19
Waning Crescent
Feb 21
New
Feb 29
First Quarter
Mar 8
Full
Mar 14
Last Quarter

Hourly Weather History & Observations

Time (CST) Temp. Windchill Dew Point Humidity Pressure Visibility Wind Dir Wind Speed Gust Speed Precip Events Conditions
12:53 AM 30.9 °F - 25.0 °F 79% 30.13 in 10.0 mi Calm Calm - N/A   Clear
1:53 AM 32.0 °F - 26.1 °F 79% 30.13 in 10.0 mi Calm Calm - N/A   Clear
2:53 AM 30.0 °F 26.5 °F 26.1 °F 85% 30.13 in 10.0 mi NNW 3.5 mph - N/A   Clear
3:53 AM 28.0 °F - 25.0 °F 88% 30.12 in 10.0 mi Calm Calm - N/A   Clear
4:53 AM 28.0 °F 24.2 °F 25.0 °F 88% 30.11 in 10.0 mi East 3.5 mph - N/A   Clear
5:53 AM 27.0 °F - 24.1 °F 89% 30.12 in 10.0 mi Calm Calm - N/A   Clear
6:53 AM 25.0 °F - 21.9 °F 88% 30.12 in 10.0 mi Calm Calm - N/A   Clear
7:53 AM 30.0 °F - 25.0 °F 82% 30.13 in 10.0 mi Calm Calm - N/A   Partly Cloudy
8:53 AM 34.0 °F - 28.0 °F 79% 30.13 in 10.0 mi Calm Calm - N/A   Partly Cloudy
9:53 AM 39.9 °F 35.8 °F 28.9 °F 65% 30.13 in 10.0 mi SSE 5.8 mph - N/A   Partly Cloudy
10:53 AM 43.0 °F 37.7 °F 28.0 °F 56% 30.12 in 10.0 mi South 9.2 mph - 0.00 in   Partly Cloudy
11:53 AM 46.9 °F - 28.9 °F 50% 30.11 in 10.0 mi South 8.1 mph - N/A   Partly Cloudy
12:53 PM 50.0 °F - 30.0 °F 46% 30.08 in 10.0 mi South 11.5 mph - N/A   Partly Cloudy
1:53 PM 52.0 °F - 33.1 °F 49% 30.04 in 10.0 mi SSE 10.4 mph - N/A   Partly Cloudy
2:53 PM 52.0 °F - 35.1 °F 53% 30.01 in 10.0 mi South 15.0 mph - N/A   Partly Cloudy
3:53 PM 53.1 °F - 37.0 °F 55% 29.98 in 10.0 mi SSE 13.8 mph 20.7 mph N/A   Scattered Clouds
4:53 PM 52.0 °F - 37.0 °F 57% 29.97 in 10.0 mi SSE 16.1 mph 24.2 mph N/A   Scattered Clouds
5:53 PM 50.0 °F - 37.0 °F 61% 29.96 in 10.0 mi SSE 12.7 mph - N/A   Mostly Cloudy
6:53 PM 46.0 °F 41.0 °F 37.0 °F 71% 29.95 in 10.0 mi SSE 10.4 mph - N/A   Scattered Clouds
7:53 PM 44.1 °F 38.6 °F 36.0 °F 73% 29.95 in 10.0 mi SSE 10.4 mph - N/A   Scattered Clouds
8:53 PM 45.0 °F 38.9 °F 35.1 °F 68% 29.95 in 10.0 mi SSE 12.7 mph - N/A   Mostly Cloudy
9:53 PM 45.0 °F 38.2 °F 34.0 °F 65% 29.95 in 10.0 mi SSE 15.0 mph - N/A   Mostly Cloudy
10:53 PM 44.1 °F 37.1 °F 35.1 °F 71% 29.93 in 10.0 mi SE 15.0 mph - N/A   Scattered Clouds
11:53 PM 43.0 °F 36.8 °F 36.0 °F 76% 29.94 in 10.0 mi SSE 11.5 mph - N/A   Mostly Cloudy